Weather in Ozernyy

Russia / Republic of Mordovia     54°24′29″N   42°41′44″E
temp.,
°C
wind,
m/s
gust,
m/s
humid.,
%
clouds,
%
prec.,
mm/h
press.,
hPa
HPBL,
m
27 february, sat
sat2700:00+1w51394100 0.1 1000823
03:00+1w61396100 0.1 999842
06:00+1w61297100 0.1 997815
09:000wnw71297100 1.1 999773
12:00−6nnw6991100 0.8 1002729
15:00−8nnw6989100 1.1 1006772
18:00−10nnw4990100 0.3 1009709
21:00−13nnw3994100 0.3 1011458
28 february, sun
sun2800:00−15nw379679 0.0 1012208
03:00−16nw269772 0.1 1013147
06:00−17nw23970 0.0 101472
09:00−14nnw259333 0.0 1015252
12:00−10nnw248898 0.1 1015467
15:00−8nw248799 0.1 1016612
18:00−11nnw2295100 0.1 101742
21:00−13n229590 0.1 101920
1 march, mon
mon100:00−15nne119763 0.0 102020
03:00−15nw129748 0.0 102220
06:00−16nnw129740 0.0 102320
09:00−12wnw119347 0.0 1024110
12:00−7w238782 0.0 1024390
15:00−6w248991 0.1 1023452
18:00−9sw259696 0.0 1021104
21:00−4sw4109598 0.1 1019607
2 march, tue
tue200:00−3sw51196100 0.3 1016505
03:00−2wsw61396100 1.8 1012731
06:000wsw51298100 1.8 1008765
09:000wnw61297100 2.9 1006817
12:00+1nw5109790 0.4 10061017
15:00+1nw5119095 0.8 10071030
18:00−1nw4119070 0.1 1007832
21:00−2nw5129584 0.3 1008723
3 march, wed
wed300:00−3nw5129598 0.2 1008707
03:00−5nw4119592 0.2 1009439
06:00−5nw4129497 0.0 1011561
09:00−4nw5119095 0.1 1012680
12:00−2nw61089100 0.2 1013992
15:00−2nw6982100 0.4 10141081
18:00−3nw399499 0.1 1014507
21:00−4wnw4119495 0.2 1016415